Time,TemperatureF,DewpointF,PressureIn,WindDirection,WindDirectionDegrees,WindSpeedMPH,WindSpeedGustMPH,Humidity,HourlyPrecipIn,Conditions,Clouds,dailyrainin,SoftwareType,DateUTC
2013-02-21 00:00:00,15.2,12.5,30.46,ENE,64,0.0,-999.0,89,0.00,,,0.00,Wunderground v.1.15,2013-02-21 06:00:00,
2013-02-21 00:10:00,15.1,12.7,30.45,ENE,64,0.0,-999.0,90,0.00,,,0.00,Wunderground v.1.15,2013-02-21 06:10:00,
2013-02-21 00:15:00,15.0,12.6,30.45,ENE,64,0.0,-999.0,90,0.00,,,0.00,Wunderground v.1.15,2013-02-21 06:15:00,
2013-02-21 00:20:00,15.0,12.6,30.45,ENE,64,0.0,-999.0,90,0.00,,,0.00,Wunderground v.1.15,2013-02-21 06:20:00,
2013-02-21 00:25:00,14.9,12.5,30.44,ENE,64,0.0,-999.0,90,0.00,,,0.00,Wunderground v.1.15,2013-02-21 06:25:00,
2013-02-21 00:30:00,14.7,12.3,30.44,ENE,64,0.0,-999.0,90,0.00,,,0.00,Wunderground v.1.15,2013-02-21 06:30:00,
2013-02-21 00:40:00,14.6,12.2,30.44,ENE,64,0.0,-999.0,90,0.00,,,0.00,Wunderground v.1.15,2013-02-21 06:40:00,
2013-02-21 00:45:00,14.7,12.3,30.44,ENE,64,0.0,-999.0,90,0.00,,,0.00,Wunderground v.1.15,2013-02-21 06:45:00,
2013-02-21 00:50:00,14.7,12.3,30.44,ENE,64,0.0,-999.0,90,0.00,,,0.00,Wunderground v.1.15,2013-02-21 06:50:00,
2013-02-21 00:55:00,14.6,12.2,30.44,ENE,64,0.0,-999.0,90,0.00,,,0.00,Wunderground v.1.15,2013-02-21 06:55:00,
2013-02-21 01:00:00,14.6,12.2,30.44,ENE,64,0.0,-999.0,90,0.00,,,0.00,Wunderground v.1.15,2013-02-21 07:00:00,
2013-02-21 01:10:00,14.5,12.1,30.44,ENE,64,0.0,-999.0,90,0.00,,,0.00,Wunderground v.1.15,2013-02-21 07:10:00,
2013-02-21 01:15:00,14.6,12.2,30.45,ENE,65,0.0,-999.0,90,0.00,,,0.00,Wunderground v.1.15,2013-02-21 07:15:00,
2013-02-21 01:20:00,14.6,12.2,30.45,ENE,65,0.0,-999.0,90,0.00,,,0.00,Wunderground v.1.15,2013-02-21 07:20:00,
2013-02-21 01:25:00,14.6,12.2,30.45,ENE,65,0.0,-999.0,90,0.00,,,0.00,Wunderground v.1.15,2013-02-21 07:25:00,
2013-02-21 01:30:00,14.6,12.2,30.45,ENE,65,0.0,-999.0,90,0.00,,,0.00,Wunderground v.1.15,2013-02-21 07:30:00,
2013-02-21 01:35:00,14.5,12.1,30.45,ENE,65,0.0,-999.0,90,0.00,,,0.00,Wunderground v.1.15,2013-02-21 07:35:00,
2013-02-21 01:45:00,14.3,11.9,30.44,ENE,65,0.0,-999.0,90,0.00,,,0.00,Wunderground v.1.15,2013-02-21 07:45:00,
2013-02-21 01:50:00,14.1,11.7,30.45,ENE,65,0.0,-999.0,90,0.00,,,0.00,Wunderground v.1.15,2013-02-21 07:50:00,
2013-02-21 01:55:00,13.9,11.3,30.44,ENE,65,0.0,-999.0,89,0.00,,,0.00,Wunderground v.1.15,2013-02-21 07:55:00,
2013-02-21 02:00:00,13.7,11.1,30.44,ENE,65,0.0,-999.0,89,0.00,,,0.00,Wunderground v.1.15,2013-02-21 08:00:00,
2013-02-21 02:05:00,13.6,11.2,30.44,ENE,65,0.0,-999.0,90,0.00,,,0.00,Wunderground v.1.15,2013-02-21 08:05:00,
2013-02-21 02:10:00,13.5,11.1,30.44,ENE,65,0.0,-999.0,90,0.00,,,0.00,Wunderground v.1.15,2013-02-21 08:10:00,
2013-02-21 02:15:00,13.4,11.0,30.43,ENE,65,0.0,-999.0,90,0.00,,,0.00,Wunderground v.1.15,2013-02-21 08:15:00,
2013-02-21 02:20:00,13.4,11.0,30.43,ENE,65,0.0,-999.0,90,0.00,,,0.00,Wunderground v.1.15,2013-02-21 08:20:00,
2013-02-21 02:25:00,13.3,10.9,30.43,ENE,65,0.0,-999.0,90,0.00,,,0.00,Wunderground v.1.15,2013-02-21 08:25:00,
2013-02-21 02:30:00,13.2,10.8,30.43,ENE,65,0.0,-999.0,90,0.00,,,0.00,Wunderground v.1.15,2013-02-21 08:30:00,
2013-02-21 02:35:00,13.3,11.2,30.43,ENE,65,0.0,-999.0,91,0.00,,,0.00,Wunderground v.1.15,2013-02-21 08:35:00,
2013-02-21 02:45:00,13.5,11.4,30.43,ENE,65,0.0,-999.0,91,0.00,,,0.00,Wunderground v.1.15,2013-02-21 08:45:00,
2013-02-21 02:50:00,13.6,11.5,30.44,ENE,65,0.0,-999.0,91,0.00,,,0.00,Wunderground v.1.15,2013-02-21 08:50:00,
2013-02-21 02:55:00,13.4,11.3,30.44,ENE,65,0.0,-999.0,91,0.00,,,0.00,Wunderground v.1.15,2013-02-21 08:55:00,
2013-02-21 03:00:00,13.4,11.3,30.43,ENE,65,0.0,-999.0,91,0.00,,,0.00,Wunderground v.1.15,2013-02-21 09:00:00,
2013-02-21 03:05:00,13.4,11.3,30.43,ENE,65,0.0,-999.0,91,0.00,,,0.00,Wunderground v.1.15,2013-02-21 09:05:00,
2013-02-21 03:10:00,13.4,11.3,30.43,ENE,65,0.0,-999.0,91,0.00,,,0.00,Wunderground v.1.15,2013-02-21 09:10:00,
2013-02-21 03:15:00,13.4,11.3,30.43,ENE,65,0.0,-999.0,91,0.00,,,0.00,Wunderground v.1.15,2013-02-21 09:15:00,
2013-02-21 03:20:00,13.4,11.3,30.43,ENE,65,0.0,-999.0,91,0.00,,,0.00,Wunderground v.1.15,2013-02-21 09:20:00,
2013-02-21 03:25:00,13.2,11.1,30.44,ENE,65,0.0,-999.0,91,0.00,,,0.00,Wunderground v.1.15,2013-02-21 09:25:00,
2013-02-21 03:30:00,13.1,11.0,30.44,ENE,65,0.0,-999.0,91,0.00,,,0.00,Wunderground v.1.15,2013-02-21 09:30:00,
2013-02-21 03:35:00,13.1,11.0,30.44,ENE,65,0.0,-999.0,91,0.00,,,0.00,Wunderground v.1.15,2013-02-21 09:35:00,
2013-02-21 03:40:00,13.0,10.9,30.44,ENE,65,0.0,-999.0,91,0.00,,,0.00,Wunderground v.1.15,2013-02-21 09:40:00,
2013-02-21 03:50:00,13.0,10.9,30.45,ENE,65,0.0,-999.0,91,0.00,,,0.00,Wunderground v.1.15,2013-02-21 09:50:00,
2013-02-21 03:55:00,13.0,10.9,30.45,ENE,65,0.0,-999.0,91,0.00,,,0.00,Wunderground v.1.15,2013-02-21 09:55:00,
2013-02-21 04:00:00,12.8,10.7,30.45,ENE,65,0.0,-999.0,91,0.00,,,0.00,Wunderground v.1.15,2013-02-21 10:00:00,
2013-02-21 04:05:00,12.8,10.7,30.45,ENE,65,0.0,-999.0,91,0.00,,,0.00,Wunderground v.1.15,2013-02-21 10:05:00,
2013-02-21 04:10:00,12.7,10.6,30.44,ENE,65,0.0,-999.0,91,0.00,,,0.00,Wunderground v.1.15,2013-02-21 10:10:00,
2013-02-21 04:20:00,12.4,10.3,30.44,ENE,65,0.0,-999.0,91,0.00,,,0.00,Wunderground v.1.15,2013-02-21 10:20:00,
2013-02-21 04:25:00,12.3,10.2,30.44,ENE,65,0.0,-999.0,91,0.00,,,0.00,Wunderground v.1.15,2013-02-21 10:25:00,
2013-02-21 04:30:00,12.3,10.2,30.44,ENE,65,0.0,-999.0,91,0.00,,,0.00,Wunderground v.1.15,2013-02-21 10:30:00,
2013-02-21 04:35:00,12.4,10.3,30.44,ENE,65,0.0,-999.0,91,0.00,,,0.00,Wunderground v.1.15,2013-02-21 10:35:00,
2013-02-21 04:40:00,12.5,10.4,30.44,ENE,65,0.0,-999.0,91,0.00,,,0.00,Wunderground v.1.15,2013-02-21 10:40:00,
2013-02-21 04:45:00,12.4,10.3,30.43,ENE,65,0.0,-999.0,91,0.00,,,0.00,Wunderground v.1.15,2013-02-21 10:45:00,
2013-02-21 04:50:00,12.3,10.2,30.42,ENE,65,0.0,-999.0,91,0.00,,,0.00,Wunderground v.1.15,2013-02-21 10:50:00,
2013-02-21 04:55:00,12.2,10.1,30.42,ENE,65,0.0,-999.0,91,0.00,,,0.00,Wunderground v.1.15,2013-02-21 10:55:00,
2013-02-21 05:00:00,12.2,10.1,30.42,ENE,65,0.0,-999.0,91,0.00,,,0.00,Wunderground v.1.15,2013-02-21 11:00:00,
2013-02-21 05:05:00,12.1,10.0,30.42,ENE,65,0.0,-999.0,91,0.00,,,0.00,Wunderground v.1.15,2013-02-21 11:05:00,
2013-02-21 05:10:00,12.1,10.0,30.41,ENE,65,0.0,-999.0,91,0.00,,,0.00,Wunderground v.1.15,2013-02-21 11:10:00,
2013-02-21 05:15:00,12.2,10.1,30.41,ENE,65,0.0,-999.0,91,0.00,,,0.00,Wunderground v.1.15,2013-02-21 11:15:00,
2013-02-21 05:25:00,12.7,10.8,30.41,ENE,72,1.0,-999.0,92,0.00,,,0.00,Wunderground v.1.15,2013-02-21 11:25:00,
2013-02-21 05:30:00,13.1,11.2,30.41,ENE,72,1.0,-999.0,92,0.00,,,0.00,Wunderground v.1.15,2013-02-21 11:30:00,
2013-02-21 05:35:00,13.2,11.3,30.42,ENE,73,0.0,-999.0,92,0.00,,,0.00,Wunderground v.1.15,2013-02-21 11:35:00,
2013-02-21 05:40:00,13.4,11.5,30.42,ENE,73,0.0,-999.0,92,0.00,,,0.00,Wunderground v.1.15,2013-02-21 11:40:00,
2013-02-21 05:45:00,13.5,11.6,30.42,ENE,73,0.0,-999.0,92,0.00,,,0.00,Wunderground v.1.15,2013-02-21 11:45:00,
2013-02-21 05:50:00,13.5,11.6,30.42,East,90,0.0,-999.0,92,0.00,,,0.00,Wunderground v.1.15,2013-02-21 11:50:00,
2013-02-21 05:55:00,13.7,11.8,30.43,East,90,1.0,-999.0,92,0.00,,,0.00,Wunderground v.1.15,2013-02-21 11:55:00,
2013-02-21 06:00:00,13.9,12.0,30.44,East,90,1.0,-999.0,92,0.00,,,0.00,Wunderground v.1.15,2013-02-21 12:00:00,
2013-02-21 06:05:00,13.9,11.8,30.44,East,90,0.0,-999.0,91,0.00,,,0.00,Wunderground v.1.15,2013-02-21 12:05:00,
2013-02-21 06:10:00,14.0,11.9,30.44,East,90,0.0,-999.0,91,0.00,,,0.00,Wunderground v.1.15,2013-02-21 12:10:00,
2013-02-21 06:15:00,13.9,11.8,30.44,East,90,0.0,-999.0,91,0.00,,,0.00,Wunderground v.1.15,2013-02-21 12:15:00,
2013-02-21 06:25:00,13.8,11.4,30.44,East,90,0.0,-999.0,90,0.00,,,0.00,Wunderground v.1.15,2013-02-21 12:25:00,
2013-02-21 06:30:00,13.7,11.6,30.44,East,90,0.0,-999.0,91,0.00,,,0.00,Wunderground v.1.15,2013-02-21 12:30:00,
2013-02-21 06:35:00,13.6,11.2,30.43,East,90,0.0,-999.0,90,0.00,,,0.00,Wunderground v.1.15,2013-02-21 12:35:00,
2013-02-21 06:40:00,13.6,11.5,30.43,East,90,0.0,-999.0,91,0.00,,,0.00,Wunderground v.1.15,2013-02-21 12:40:00,
2013-02-21 06:45:00,13.6,11.5,30.42,East,90,0.0,-999.0,91,0.00,,,0.00,Wunderground v.1.15,2013-02-21 12:45:00,
2013-02-21 06:50:00,13.6,11.5,30.40,East,90,0.0,-999.0,91,0.00,,,0.00,Wunderground v.1.15,2013-02-21 12:50:00,
2013-02-21 07:00:00,13.9,11.8,30.38,East,91,0.0,-999.0,91,0.00,,,0.00,Wunderground v.1.15,2013-02-21 13:00:00,
2013-02-21 07:05:00,14.5,12.6,30.37,ESE,114,1.0,-999.0,92,0.00,,,0.00,Wunderground v.1.15,2013-02-21 13:05:00,
2013-02-21 07:10:00,15.4,13.7,30.38,East,93,2.0,-999.0,93,0.00,,,0.00,Wunderground v.1.15,2013-02-21 13:10:00,
2013-02-21 07:15:00,16.2,14.5,30.40,ENE,74,2.0,-999.0,93,0.00,,,0.00,Wunderground v.1.15,2013-02-21 13:15:00,
2013-02-21 07:20:00,17.0,15.3,30.40,East,98,2.0,-999.0,93,0.00,,,0.00,Wunderground v.1.15,2013-02-21 13:20:00,
2013-02-21 07:30:00,18.2,16.5,30.41,ESE,117,1.0,-999.0,93,0.00,,,0.00,Wunderground v.1.15,2013-02-21 13:30:00,
2013-02-21 07:35:00,18.8,16.9,30.41,ESE,119,2.0,-999.0,92,0.00,,,0.00,Wunderground v.1.15,2013-02-21 13:35:00,
2013-02-21 07:40:00,19.2,17.3,30.41,East,94,2.0,-999.0,92,0.00,,,0.00,Wunderground v.1.15,2013-02-21 13:40:00,
2013-02-21 07:45:00,19.6,17.7,30.41,East,94,1.0,-999.0,92,0.00,,,0.00,Wunderground v.1.15,2013-02-21 13:45:00,
2013-02-21 07:50:00,20.1,17.9,30.41,East,86,2.0,-999.0,91,0.00,,,0.00,Wunderground v.1.15,2013-02-21 13:50:00,
2013-02-21 08:00:00,21.0,18.5,30.42,ESE,109,2.0,-999.0,90,0.00,,,0.00,Wunderground v.1.15,2013-02-21 14:00:00,
2013-02-21 08:05:00,21.5,19.0,30.42,NE,39,2.0,-999.0,90,0.00,,,0.00,Wunderground v.1.15,2013-02-21 14:05:00,
2013-02-21 08:10:00,21.9,19.2,30.42,ESE,103,3.0,-999.0,89,0.00,,,0.00,Wunderground v.1.15,2013-02-21 14:10:00,
2013-02-21 08:15:00,22.1,19.1,30.42,ENE,77,3.0,-999.0,88,0.00,,,0.00,Wunderground v.1.15,2013-02-21 14:15:00,
2013-02-21 08:20:00,22.2,19.2,30.42,East,98,3.0,-999.0,88,0.00,,,0.00,Wunderground v.1.15,2013-02-21 14:20:00,
2013-02-21 08:30:00,22.6,19.3,30.41,ESE,104,3.0,-999.0,87,0.00,,,0.00,Wunderground v.1.15,2013-02-21 14:30:00,
2013-02-21 08:35:00,22.7,19.4,30.42,SE,141,4.0,-999.0,87,0.00,,,0.00,Wunderground v.1.15,2013-02-21 14:35:00,
2013-02-21 08:40:00,22.9,19.6,30.43,ESE,115,3.0,-999.0,87,0.00,,,0.00,Wunderground v.1.15,2013-02-21 14:40:00,
2013-02-21 08:45:00,23.0,19.4,30.43,SE,129,4.0,-999.0,86,0.00,,,0.00,Wunderground v.1.15,2013-02-21 14:45:00,
2013-02-21 08:50:00,23.1,19.5,30.42,ESE,111,4.0,-999.0,86,0.00,,,0.00,Wunderground v.1.15,2013-02-21 14:50:00,
2013-02-21 08:55:00,23.4,19.8,30.41,ESE,105,3.0,-999.0,86,0.00,,,0.00,Wunderground v.1.15,2013-02-21 14:55:00,
2013-02-21 09:05:00,23.9,20.6,30.41,East,98,2.0,-999.0,87,0.00,,,0.00,Wunderground v.1.15,2013-02-21 15:05:00,
2013-02-21 09:10:00,24.2,20.9,30.40,ESE,115,3.0,-999.0,87,0.00,,,0.00,Wunderground v.1.15,2013-02-21 15:10:00,
2013-02-21 09:15:00,24.5,20.6,30.40,East,99,3.0,-999.0,85,0.00,,,0.00,Wunderground v.1.15,2013-02-21 15:15:00,
2013-02-21 09:20:00,24.6,20.5,30.39,East,97,4.0,-999.0,84,0.00,,,0.00,Wunderground v.1.15,2013-02-21 15:20:00,
2013-02-21 09:25:00,24.7,20.6,30.38,ESE,116,5.0,-999.0,84,0.00,,,0.00,Wunderground v.1.15,2013-02-21 15:25:00,
2013-02-21 09:30:00,24.9,20.8,30.38,East,96,5.0,-999.0,84,0.00,,,0.00,Wunderground v.1.15,2013-02-21 15:30:00,
2013-02-21 09:35:00,25.2,21.0,30.40,East,101,4.0,-999.0,84,0.00,,,0.00,Wunderground v.1.15,2013-02-21 15:35:00,
2013-02-21 09:40:00,25.5,21.3,30.40,ESE,113,3.0,-999.0,84,0.00,,,0.00,Wunderground v.1.15,2013-02-21 15:40:00,
2013-02-21 09:45:00,25.7,21.3,30.40,SE,126,4.0,-999.0,83,0.00,,,0.00,Wunderground v.1.15,2013-02-21 15:45:00,
2013-02-21 09:50:00,26.0,21.8,30.39,ENE,66,4.0,-999.0,84,0.00,,,0.00,Wunderground v.1.15,2013-02-21 15:50:00,
2013-02-21 09:55:00,26.0,21.3,30.38,ENE,74,4.0,-999.0,82,0.00,,,0.00,Wunderground v.1.15,2013-02-21 15:55:00,
2013-02-21 10:05:00,26.1,21.4,30.38,SE,132,4.0,-999.0,82,0.00,,,0.00,Wunderground v.1.15,2013-02-21 16:05:00,
2013-02-21 10:10:00,26.3,21.6,30.38,South,169,4.0,-999.0,82,0.00,,,0.00,Wunderground v.1.15,2013-02-21 16:10:00,
2013-02-21 10:15:00,26.4,21.4,30.38,ESE,105,4.0,-999.0,81,0.00,,,0.00,Wunderground v.1.15,2013-02-21 16:15:00,
2013-02-21 10:20:00,26.4,21.7,30.38,SE,131,4.0,-999.0,82,0.00,,,0.00,Wunderground v.1.15,2013-02-21 16:20:00,
2013-02-21 10:25:00,26.6,21.6,30.38,ESE,119,5.0,-999.0,81,0.00,,,0.00,Wunderground v.1.15,2013-02-21 16:25:00,
2013-02-21 10:30:00,26.7,21.9,30.37,ESE,107,4.0,-999.0,82,0.00,,,0.00,Wunderground v.1.15,2013-02-21 16:30:00,
2013-02-21 10:40:00,27.0,21.9,30.36,NE,46,4.0,-999.0,81,0.00,,,0.00,Wunderground v.1.15,2013-02-21 16:40:00,
2013-02-21 10:45:00,27.1,22.0,30.36,SSE,168,5.0,-999.0,81,0.00,,,0.00,Wunderground v.1.15,2013-02-21 16:45:00,
2013-02-21 10:50:00,27.2,22.1,30.35,South,171,5.0,-999.0,81,0.00,,,0.00,Wunderground v.1.15,2013-02-21 16:50:00,
2013-02-21 10:55:00,27.2,21.8,30.35,East,90,5.0,-999.0,80,0.00,,,0.00,Wunderground v.1.15,2013-02-21 16:55:00,
2013-02-21 11:05:00,27.4,22.0,30.34,ESE,103,5.0,-999.0,80,0.00,,,0.00,Wunderground v.1.15,2013-02-21 17:05:00,
2013-02-21 11:10:00,27.6,22.2,30.34,ENE,69,6.0,-999.0,80,0.00,,,0.00,Wunderground v.1.15,2013-02-21 17:10:00,
2013-02-21 11:15:00,27.8,22.4,30.34,ENE,78,6.0,-999.0,80,0.00,,,0.00,Wunderground v.1.15,2013-02-21 17:15:00,
2013-02-21 11:20:00,27.9,22.2,30.34,SE,144,5.0,-999.0,79,0.00,,,0.00,Wunderground v.1.15,2013-02-21 17:20:00,
2013-02-21 11:25:00,28.1,22.7,30.34,ESE,108,5.0,-999.0,80,0.00,,,0.00,Wunderground v.1.15,2013-02-21 17:25:00,
2013-02-21 11:30:00,28.2,22.8,30.33,East,90,4.0,-999.0,80,0.00,,,0.00,Wunderground v.1.15,2013-02-21 17:30:00,
2013-02-21 11:40:00,28.4,22.7,30.30,NE,43,4.0,-999.0,79,0.00,,,0.00,Wunderground v.1.15,2013-02-21 17:40:00,
2013-02-21 11:45:00,28.3,22.6,30.30,SE,142,5.0,-999.0,79,0.00,,,0.00,Wunderground v.1.15,2013-02-21 17:45:00,
2013-02-21 11:50:00,28.2,22.5,30.29,ESE,115,5.0,-999.0,79,0.00,,,0.00,Wunderground v.1.15,2013-02-21 17:50:00,
2013-02-21 11:55:00,28.1,22.4,30.29,SE,126,5.0,-999.0,79,0.00,,,0.00,Wunderground v.1.15,2013-02-21 17:55:00,
2013-02-21 12:00:00,27.8,22.4,30.28,ENE,62,5.0,-999.0,80,0.00,,,0.00,Wunderground v.1.15,2013-02-21 18:00:00,
2013-02-21 12:05:00,27.7,22.0,30.27,SE,130,6.0,-999.0,79,0.00,,,0.00,Wunderground v.1.15,2013-02-21 18:05:00,
2013-02-21 12:15:00,27.6,22.2,30.26,East,98,4.0,-999.0,80,0.00,,,0.00,Wunderground v.1.15,2013-02-21 18:15:00,
2013-02-21 12:20:00,27.5,22.4,30.26,ENE,64,5.0,-999.0,81,0.00,,,0.00,Wunderground v.1.15,2013-02-21 18:20:00,
2013-02-21 12:25:00,27.6,22.2,30.26,East,82,5.0,-999.0,80,0.00,,,0.00,Wunderground v.1.15,2013-02-21 18:25:00,
2013-02-21 12:30:00,27.6,22.5,30.26,East,97,4.0,-999.0,81,0.00,,,0.00,Wunderground v.1.15,2013-02-21 18:30:00,
2013-02-21 12:35:00,27.6,22.2,30.25,SE,127,4.0,-999.0,80,0.00,,,0.00,Wunderground v.1.15,2013-02-21 18:35:00,
2013-02-21 12:45:00,27.8,22.4,30.25,SE,129,4.0,-999.0,80,0.00,,,0.00,Wunderground v.1.15,2013-02-21 18:45:00,
2013-02-21 12:50:00,27.9,22.5,30.25,ESE,113,4.0,-999.0,80,0.00,,,0.00,Wunderground v.1.15,2013-02-21 18:50:00,
2013-02-21 13:00:00,28.0,22.6,30.25,SSE,153,5.0,-999.0,80,0.00,,,0.00,Wunderground v.1.15,2013-02-21 19:00:00,
2013-02-21 13:10:00,28.2,22.8,30.26,SE,126,3.0,-999.0,80,0.00,,,0.00,Wunderground v.1.15,2013-02-21 19:10:00,
2013-02-21 13:15:00,28.3,23.2,30.26,East,98,4.0,-999.0,81,0.00,,,0.00,Wunderground v.1.15,2013-02-21 19:15:00,
2013-02-21 13:20:00,28.4,23.0,30.26,SE,138,4.0,-999.0,80,0.00,,,0.00,Wunderground v.1.15,2013-02-21 19:20:00,
2013-02-21 13:25:00,28.5,23.1,30.26,ENE,74,4.0,-999.0,80,0.00,,,0.00,Wunderground v.1.15,2013-02-21 19:25:00,
2013-02-21 13:30:00,28.6,23.2,30.28,ESE,122,5.0,-999.0,80,0.00,,,0.00,Wunderground v.1.15,2013-02-21 19:30:00,
2013-02-21 13:35:00,28.7,23.3,30.29,ESE,122,4.0,-999.0,80,0.00,,,0.00,Wunderground v.1.15,2013-02-21 19:35:00,
2013-02-21 13:40:00,28.6,22.9,30.30,ESE,103,4.0,-999.0,79,0.00,,,0.00,Wunderground v.1.15,2013-02-21 19:40:00,
2013-02-21 13:50:00,28.6,23.2,30.30,SE,128,3.0,-999.0,80,0.00,,,0.00,Wunderground v.1.15,2013-02-21 19:50:00,
2013-02-21 13:55:00,28.7,23.0,30.30,SE,144,3.0,-999.0,79,0.00,,,0.00,Wunderground v.1.15,2013-02-21 19:55:00,
2013-02-21 14:00:00,28.6,22.9,30.29,SE,140,4.0,-999.0,79,0.00,,,0.00,Wunderground v.1.15,2013-02-21 20:00:00,
2013-02-21 14:10:00,28.6,23.2,30.28,ESE,112,5.0,-999.0,80,0.00,,,0.00,Wunderground v.1.15,2013-02-21 20:10:00,
2013-02-21 14:15:00,28.7,23.3,30.27,ENE,75,4.0,-999.0,80,0.00,,,0.00,Wunderground v.1.15,2013-02-21 20:15:00,
2013-02-21 14:20:00,28.7,23.3,30.26,SE,136,3.0,-999.0,80,0.00,,,0.00,Wunderground v.1.15,2013-02-21 20:20:00,
2013-02-21 14:25:00,28.7,23.3,30.26,ENE,74,3.0,-999.0,80,0.00,,,0.00,Wunderground v.1.15,2013-02-21 20:25:00,
2013-02-21 14:30:00,28.8,23.4,30.26,East,93,4.0,-999.0,80,0.00,,,0.00,Wunderground v.1.15,2013-02-21 20:30:00,
2013-02-21 14:35:00,28.7,23.3,30.26,SE,130,4.0,-999.0,80,0.00,,,0.00,Wunderground v.1.15,2013-02-21 20:35:00,
2013-02-21 14:40:00,28.7,23.3,30.26,ENE,78,4.0,-999.0,80,0.00,,,0.00,Wunderground v.1.15,2013-02-21 20:40:00,
2013-02-21 14:50:00,28.7,23.3,30.25,East,94,3.0,-999.0,80,0.00,,,0.00,Wunderground v.1.15,2013-02-21 20:50:00,
2013-02-21 14:55:00,28.7,23.3,30.25,ESE,111,3.0,-999.0,80,0.00,,,0.00,Wunderground v.1.15,2013-02-21 20:55:00,
2013-02-21 15:00:00,28.6,23.2,30.25,SE,130,4.0,-999.0,80,0.00,,,0.00,Wunderground v.1.15,2013-02-21 21:00:00,
2013-02-21 15:05:00,28.5,23.4,30.25,SE,129,5.0,-999.0,81,0.00,,,0.00,Wunderground v.1.15,2013-02-21 21:05:00,
2013-02-21 15:10:00,28.5,23.4,30.25,ESE,113,5.0,-999.0,81,0.00,,,0.00,Wunderground v.1.15,2013-02-21 21:10:00,
2013-02-21 15:15:00,28.5,23.4,30.24,SE,131,4.0,-999.0,81,0.00,,,0.00,Wunderground v.1.15,2013-02-21 21:15:00,
2013-02-21 15:25:00,28.5,23.1,30.23,SE,130,5.0,-999.0,80,0.00,,,0.00,Wunderground v.1.15,2013-02-21 21:25:00,
2013-02-21 15:30:00,28.6,23.5,30.22,NE,40,5.0,-999.0,81,0.00,,,0.00,Wunderground v.1.15,2013-02-21 21:30:00,
2013-02-21 15:35:00,28.7,23.6,30.22,East,80,5.0,-999.0,81,0.00,,,0.00,Wunderground v.1.15,2013-02-21 21:35:00,
2013-02-21 15:40:00,28.7,23.6,30.21,East,92,4.0,-999.0,81,0.00,,,0.00,Wunderground v.1.15,2013-02-21 21:40:00,
2013-02-21 15:45:00,28.7,23.3,30.20,East,80,5.0,-999.0,80,0.00,,,0.00,Wunderground v.1.15,2013-02-21 21:45:00,
2013-02-21 15:50:00,28.4,23.0,30.20,East,90,6.0,-999.0,80,0.00,,,0.00,Wunderground v.1.15,2013-02-21 21:50:00,
2013-02-21 15:55:00,28.3,22.9,30.20,East,100,5.0,-999.0,80,0.00,,,0.00,Wunderground v.1.15,2013-02-21 21:55:00,
2013-02-21 16:00:00,28.3,22.9,30.20,SE,136,5.0,-999.0,80,0.00,,,0.00,Wunderground v.1.15,2013-02-21 22:00:00,
2013-02-21 16:10:00,28.3,23.2,30.19,ESE,114,4.0,-999.0,81,0.00,,,0.00,Wunderground v.1.15,2013-02-21 22:10:00,
2013-02-21 16:15:00,28.3,23.2,30.20,ENE,58,3.0,-999.0,81,0.00,,,0.00,Wunderground v.1.15,2013-02-21 22:15:00,
2013-02-21 16:25:00,28.1,23.0,30.21,ESE,123,5.0,-999.0,81,0.00,,,0.00,Wunderground v.1.15,2013-02-21 22:25:00,
2013-02-21 16:30:00,27.9,22.8,30.21,ESE,107,5.0,-999.0,81,0.00,,,0.00,Wunderground v.1.15,2013-02-21 22:30:00,
2013-02-21 16:35:00,27.9,23.1,30.21,ESE,103,5.0,-999.0,82,0.00,,,0.00,Wunderground v.1.15,2013-02-21 22:35:00,
2013-02-21 16:40:00,27.8,23.0,30.21,ESE,119,5.0,-999.0,82,0.00,,,0.00,Wunderground v.1.15,2013-02-21 22:40:00,
2013-02-21 16:45:00,27.7,22.9,30.21,SSE,152,6.0,-999.0,82,0.00,,,0.00,Wunderground v.1.15,2013-02-21 22:45:00,
2013-02-21 16:50:00,27.6,22.8,30.21,SE,131,6.0,-999.0,82,0.00,,,0.00,Wunderground v.1.15,2013-02-21 22:50:00,
2013-02-21 17:00:00,27.4,22.9,30.19,ESE,121,7.0,-999.0,83,0.00,,,0.00,Wunderground v.1.15,2013-02-21 23:00:00,
2013-02-21 17:05:00,27.1,23.2,30.18,ESE,119,6.0,-999.0,85,0.00,,,0.00,Wunderground v.1.15,2013-02-21 23:05:00,
2013-02-21 17:10:00,26.6,23.3,30.17,East,100,6.0,-999.0,87,0.00,,,0.00,Wunderground v.1.15,2013-02-21 23:10:00,
2013-02-21 17:15:00,26.4,23.1,30.17,ESE,107,6.0,-999.0,87,0.00,,,0.00,Wunderground v.1.15,2013-02-21 23:15:00,
2013-02-21 17:20:00,26.3,23.2,30.16,SE,125,5.0,-999.0,88,0.00,,,0.00,Wunderground v.1.15,2013-02-21 23:20:00,
2013-02-21 17:30:00,26.1,23.0,30.15,East,92,7.0,-999.0,88,0.00,,,0.00,Wunderground v.1.15,2013-02-21 23:30:00,
2013-02-21 17:35:00,26.0,22.9,30.14,SSE,156,7.0,-999.0,88,0.00,,,0.00,Wunderground v.1.15,2013-02-21 23:35:00,
2013-02-21 17:40:00,26.0,22.9,30.13,East,93,5.0,-999.0,88,0.00,,,0.00,Wunderground v.1.15,2013-02-21 23:40:00,
2013-02-21 17:45:00,25.9,22.8,30.13,ESE,123,5.0,-999.0,88,0.00,,,0.00,Wunderground v.1.15,2013-02-21 23:45:00,
2013-02-21 17:50:00,25.9,22.8,30.12,East,100,8.0,-999.0,88,0.00,,,0.00,Wunderground v.1.15,2013-02-21 23:50:00,
2013-02-21 18:00:00,25.7,22.9,30.12,SSE,156,6.0,-999.0,89,0.00,,,0.00,Wunderground v.1.15,2013-02-22 00:00:00,
2013-02-21 18:05:00,25.6,23.1,30.11,East,96,6.0,-999.0,90,0.00,,,0.00,Wunderground v.1.15,2013-02-22 00:05:00,
2013-02-21 18:10:00,25.5,23.2,30.11,ESE,113,6.0,-999.0,91,0.00,,,0.00,Wunderground v.1.15,2013-02-22 00:10:00,
2013-02-21 18:15:00,25.4,23.1,30.12,SE,136,6.0,-999.0,91,0.00,,,0.00,Wunderground v.1.15,2013-02-22 00:15:00,
2013-02-21 18:20:00,25.4,23.1,30.12,SE,128,6.0,-999.0,91,0.00,,,0.00,Wunderground v.1.15,2013-02-22 00:20:00,
2013-02-21 18:25:00,25.4,23.4,30.10,ENE,73,6.0,-999.0,92,0.00,,,0.00,Wunderground v.1.15,2013-02-22 00:25:00,
2013-02-21 18:35:00,25.4,23.4,30.09,NNE,27,5.0,-999.0,92,0.00,,,0.00,Wunderground v.1.15,2013-02-22 00:35:00,
2013-02-21 18:40:00,25.3,23.3,30.08,ESE,113,6.0,-999.0,92,0.00,,,0.00,Wunderground v.1.15,2013-02-22 00:40:00,
2013-02-21 18:45:00,25.3,23.3,30.07,ESE,110,7.0,-999.0,92,0.00,,,0.00,Wunderground v.1.15,2013-02-22 00:45:00,
2013-02-21 18:50:00,25.2,23.5,30.07,East,96,7.0,-999.0,93,0.00,,,0.00,Wunderground v.1.15,2013-02-22 00:50:00,
2013-02-21 18:55:00,25.1,23.4,30.05,ESE,115,7.0,-999.0,93,0.00,,,0.00,Wunderground v.1.15,2013-02-22 00:55:00,
2013-02-21 19:05:00,25.0,23.3,30.05,ESE,122,6.0,-999.0,93,0.00,,,0.00,Wunderground v.1.15,2013-02-22 01:05:00,
2013-02-21 19:10:00,25.0,23.3,30.03,East,86,7.0,-999.0,93,0.00,,,0.00,Wunderground v.1.15,2013-02-22 01:10:00,
2013-02-21 19:15:00,25.0,23.3,30.02,ESE,113,8.0,-999.0,93,0.00,,,0.00,Wunderground v.1.15,2013-02-22 01:15:00,
2013-02-21 19:20:00,25.0,23.3,30.02,ESE,107,9.0,-999.0,93,0.00,,,0.00,Wunderground v.1.15,2013-02-22 01:20:00,
2013-02-21 19:25:00,25.0,23.3,30.01,East,83,8.0,-999.0,93,0.00,,,0.00,Wunderground v.1.15,2013-02-22 01:25:00,
2013-02-21 19:30:00,25.1,23.4,30.01,ENE,68,7.0,-999.0,93,0.00,,,0.00,Wunderground v.1.15,2013-02-22 01:30:00,
2013-02-21 19:40:00,25.1,23.1,30.00,SSE,151,9.0,-999.0,92,0.00,,,0.00,Wunderground v.1.15,2013-02-22 01:40:00,
2013-02-21 19:45:00,25.2,23.2,30.00,SE,136,9.0,-999.0,92,0.00,,,0.00,Wunderground v.1.15,2013-02-22 01:45:00,
2013-02-21 19:50:00,25.3,23.3,30.02,SE,137,9.0,-999.0,92,0.00,,,0.00,Wunderground v.1.15,2013-02-22 01:50:00,
2013-02-21 19:55:00,25.3,23.3,30.01,ESE,113,8.0,-999.0,92,0.00,,,0.00,Wunderground v.1.15,2013-02-22 01:55:00,
2013-02-21 20:00:00,25.4,23.4,30.01,ENE,69,8.0,-999.0,92,0.00,,,0.00,Wunderground v.1.15,2013-02-22 02:00:00,
2013-02-21 20:10:00,25.4,23.4,30.02,ESE,111,7.0,-999.0,92,0.00,,,0.00,Wunderground v.1.15,2013-02-22 02:10:00,
2013-02-21 20:15:00,25.4,23.4,30.02,East,82,7.0,-999.0,92,0.00,,,0.00,Wunderground v.1.15,2013-02-22 02:15:00,
2013-02-21 20:20:00,25.5,23.5,30.02,SSE,148,7.0,-999.0,92,0.00,,,0.00,Wunderground v.1.15,2013-02-22 02:20:00,
2013-02-21 20:25:00,25.5,23.5,30.02,East,97,7.0,-999.0,92,0.00,,,0.00,Wunderground v.1.15,2013-02-22 02:25:00,
2013-02-21 20:30:00,25.5,23.5,30.02,ESE,113,7.0,-999.0,92,0.00,,,0.00,Wunderground v.1.15,2013-02-22 02:30:00,
2013-02-21 20:40:00,25.5,23.5,30.03,South,183,6.0,-999.0,92,0.00,,,0.00,Wunderground v.1.15,2013-02-22 02:40:00,
2013-02-21 20:45:00,25.5,23.5,30.02,ESE,118,6.0,-999.0,92,0.00,,,0.00,Wunderground v.1.15,2013-02-22 02:45:00,
2013-02-21 20:50:00,25.5,23.5,30.02,ESE,104,7.0,-999.0,92,0.00,,,0.00,Wunderground v.1.15,2013-02-22 02:50:00,
2013-02-21 20:55:00,25.5,23.8,30.01,SSE,162,7.0,-999.0,93,0.00,,,0.00,Wunderground v.1.15,2013-02-22 02:55:00,
2013-02-21 21:00:00,25.5,23.8,30.01,SE,132,7.0,-999.0,93,0.00,,,0.00,Wunderground v.1.15,2013-02-22 03:00:00,
2013-02-21 21:05:00,25.5,23.8,30.02,ESE,113,7.0,-999.0,93,0.00,,,0.00,Wunderground v.1.15,2013-02-22 03:05:00,
2013-02-21 21:10:00,25.4,23.7,30.01,SE,124,7.0,-999.0,93,0.00,,,0.00,Wunderground v.1.15,2013-02-22 03:10:00,
2013-02-21 21:15:00,25.5,23.8,30.01,SSE,157,8.0,-999.0,93,0.00,,,0.00,Wunderground v.1.15,2013-02-22 03:15:00,
2013-02-21 21:20:00,25.5,23.8,30.01,East,99,8.0,-999.0,93,0.00,,,0.00,Wunderground v.1.15,2013-02-22 03:20:00,
2013-02-21 21:25:00,25.6,24.1,30.01,East,101,6.0,-999.0,94,0.00,,,0.00,Wunderground v.1.15,2013-02-22 03:25:00,
2013-02-21 21:30:00,25.6,24.1,30.01,East,92,6.0,-999.0,94,0.00,,,0.00,Wunderground v.1.15,2013-02-22 03:30:00,
2013-02-21 21:35:00,25.7,24.0,30.01,SE,135,7.0,-999.0,93,0.00,,,0.00,Wunderground v.1.15,2013-02-22 03:35:00,
2013-02-21 21:45:00,25.7,24.0,30.01,ESE,116,6.0,-999.0,93,0.00,,,0.00,Wunderground v.1.15,2013-02-22 03:45:00,
2013-02-21 21:50:00,25.6,23.9,30.00,South,171,6.0,-999.0,93,0.00,,,0.00,Wunderground v.1.15,2013-02-22 03:50:00,
2013-02-21 21:55:00,25.6,23.9,30.00,SE,130,6.0,-999.0,93,0.00,,,0.00,Wunderground v.1.15,2013-02-22 03:55:00,
2013-02-21 22:00:00,25.6,23.9,30.00,ESE,113,6.0,-999.0,93,0.00,,,0.00,Wunderground v.1.15,2013-02-22 04:00:00,
2013-02-21 22:05:00,25.7,24.0,30.00,ESE,117,6.0,-999.0,93,0.00,,,0.00,Wunderground v.1.15,2013-02-22 04:05:00,
2013-02-21 22:15:00,25.8,24.1,30.00,ESE,111,6.0,-999.0,93,0.00,,,0.00,Wunderground v.1.15,2013-02-22 04:15:00,
2013-02-21 22:20:00,25.8,24.1,29.99,ESE,106,6.0,-999.0,93,0.00,,,0.00,Wunderground v.1.15,2013-02-22 04:20:00,
2013-02-21 22:25:00,25.9,24.2,30.00,SE,142,7.0,-999.0,93,0.00,,,0.00,Wunderground v.1.15,2013-02-22 04:25:00,
2013-02-21 22:30:00,26.0,24.3,29.99,SE,131,7.0,-999.0,93,0.00,,,0.00,Wunderground v.1.15,2013-02-22 04:30:00,
2013-02-21 22:35:00,26.1,24.6,29.99,SE,126,6.0,-999.0,94,0.00,,,0.00,Wunderground v.1.15,2013-02-22 04:35:00,
2013-02-21 22:40:00,26.3,24.8,29.99,SE,141,5.0,-999.0,94,0.00,,,0.00,Wunderground v.1.15,2013-02-22 04:40:00,
2013-02-21 22:45:00,26.5,25.0,29.99,SE,125,6.0,-999.0,94,0.00,,,0.00,Wunderground v.1.15,2013-02-22 04:45:00,
2013-02-21 22:50:00,26.7,25.2,29.99,SE,142,7.0,-999.0,94,0.00,,,0.00,Wunderground v.1.15,2013-02-22 04:50:00,
2013-02-21 22:55:00,26.8,25.3,29.99,SE,128,7.0,-999.0,94,0.00,,,0.00,Wunderground v.1.15,2013-02-22 04:55:00,
2013-02-21 23:00:00,26.9,25.4,29.99,SE,133,7.0,-999.0,94,0.00,,,0.00,Wunderground v.1.15,2013-02-22 05:00:00,
2013-02-21 23:05:00,26.9,25.4,29.98,East,96,6.0,-999.0,94,0.00,,,0.00,Wunderground v.1.15,2013-02-22 05:05:00,
2013-02-21 23:10:00,26.9,25.7,29.97,ESE,105,5.0,-999.0,95,0.00,,,0.00,Wunderground v.1.15,2013-02-22 05:10:00,
2013-02-21 23:20:00,27.2,26.0,29.97,SE,133,5.0,-999.0,95,0.00,,,0.00,Wunderground v.1.15,2013-02-22 05:20:00,
2013-02-21 23:25:00,27.2,26.0,29.97,East,90,5.0,-999.0,95,0.00,,,0.00,Wunderground v.1.15,2013-02-22 05:25:00,
2013-02-21 23:30:00,27.2,26.0,29.97,East,90,6.0,-999.0,95,0.00,,,0.00,Wunderground v.1.15,2013-02-22 05:30:00,
2013-02-21 23:35:00,27.3,26.1,29.96,SE,136,5.0,-999.0,95,0.00,,,0.00,Wunderground v.1.15,2013-02-22 05:35:00,
2013-02-21 23:40:00,27.3,26.1,29.96,SE,127,4.0,-999.0,95,0.00,,,0.00,Wunderground v.1.15,2013-02-22 05:40:00,
2013-02-21 23:50:00,27.3,26.1,29.95,SE,139,6.0,-999.0,95,0.00,,,0.00,Wunderground v.1.15,2013-02-22 05:50:00,
2013-02-21 23:55:00,27.4,26.2,29.95,SE,127,5.0,-999.0,95,0.00,,,0.00,Wunderground v.1.15,2013-02-22 05:55:00,